Time,TemperatureF,DewpointF,PressureIn,WindDirection,WindDirectionDegrees,WindSpeedMPH,WindSpeedGustMPH,Humidity,HourlyPrecipIn,Conditions,Clouds,dailyrainin,SoftwareType,DateUTC
2013-04-09 00:00:00,37.0,27.8,0.00,ENE,57,0.0,0.0,69,0.00,,,0.00,VWS V13.01,2013-04-09 05:00:00,
2013-04-09 00:05:00,37.0,27.8,0.00,NE,50,0.0,0.0,69,0.00,,,0.00,VWS V13.01,2013-04-09 05:05:00,
2013-04-09 00:10:00,37.0,27.8,0.00,North,357,0.0,0.0,69,0.00,,,0.00,VWS V13.01,2013-04-09 05:10:00,
2013-04-09 00:15:00,37.0,27.8,0.00,NNW,337,0.0,0.0,69,0.00,,,0.00,VWS V13.01,2013-04-09 05:15:00,
2013-04-09 00:20:00,37.0,27.8,0.00,North,353,0.0,0.0,69,0.00,,,0.00,VWS V13.01,2013-04-09 05:20:00,
2013-04-09 00:25:00,37.0,27.8,0.00,NNW,330,0.0,0.0,69,0.00,,,0.00,VWS V13.01,2013-04-09 05:25:00,
2013-04-09 00:30:00,36.9,28.0,0.00,NNW,343,0.0,0.0,70,0.00,,,0.00,VWS V13.01,2013-04-09 05:30:00,
2013-04-09 00:35:00,36.9,28.0,0.00,ENE,59,0.0,0.0,70,0.00,,,0.00,VWS V13.01,2013-04-09 05:35:00,
2013-04-09 00:40:00,36.9,28.0,0.00,NNW,328,0.0,0.0,70,0.00,,,0.00,VWS V13.01,2013-04-09 05:40:00,
2013-04-09 00:45:00,36.9,28.0,0.00,NNW,339,0.0,0.0,70,0.00,,,0.00,VWS V13.01,2013-04-09 05:45:00,
2013-04-09 00:50:00,36.7,27.8,0.00,NNE,29,0.0,0.0,70,0.00,,,0.00,VWS V13.01,2013-04-09 05:50:00,
2013-04-09 00:55:00,36.7,27.8,0.00,East,87,0.0,0.0,70,0.00,,,0.00,VWS V13.01,2013-04-09 05:55:00,
2013-04-09 01:00:00,36.7,27.8,0.00,ENE,70,0.0,0.0,70,0.00,,,0.00,VWS V13.01,2013-04-09 06:00:00,
2013-04-09 01:05:00,36.7,27.8,0.00,ESE,116,0.0,0.0,70,0.00,,,0.00,VWS V13.01,2013-04-09 06:05:00,
2013-04-09 01:10:00,36.7,27.8,0.00,ESE,116,0.0,0.0,70,0.00,,,0.00,VWS V13.01,2013-04-09 06:10:00,
2013-04-09 01:15:00,36.5,27.7,0.00,North,357,0.0,0.0,70,0.00,,,0.00,VWS V13.01,2013-04-09 06:15:00,
2013-04-09 01:20:00,36.7,27.8,0.00,NNW,341,0.0,0.0,70,0.00,,,0.00,VWS V13.01,2013-04-09 06:20:00,
2013-04-09 01:25:00,36.5,27.7,0.00,NNW,342,0.0,0.0,70,0.00,,,0.00,VWS V13.01,2013-04-09 06:25:00,
2013-04-09 01:30:00,36.5,27.7,0.00,NNW,340,0.0,0.0,70,0.00,,,0.00,VWS V13.01,2013-04-09 06:30:00,
2013-04-09 01:35:00,36.5,27.7,0.00,ENE,58,0.0,0.0,70,0.00,,,0.00,VWS V13.01,2013-04-09 06:35:00,
2013-04-09 01:40:00,36.5,27.7,0.00,North,4,0.0,0.0,70,0.00,,,0.00,VWS V13.01,2013-04-09 06:40:00,
2013-04-09 01:45:00,36.3,27.5,0.00,North,4,0.0,0.0,70,0.00,,,0.00,VWS V13.01,2013-04-09 06:45:00,
2013-04-09 01:50:00,36.3,27.5,0.00,North,0,0.0,0.0,70,0.00,,,0.00,VWS V13.01,2013-04-09 06:50:00,
2013-04-09 01:55:00,36.3,27.5,0.00,North,0,0.0,0.0,70,0.00,,,0.00,VWS V13.01,2013-04-09 06:55:00,
2013-04-09 02:00:00,36.1,27.3,0.00,NNE,18,0.0,0.0,70,0.00,,,0.00,VWS V13.01,2013-04-09 07:00:00,
2013-04-09 02:05:00,36.1,27.3,0.00,NNE,18,0.0,0.0,70,0.00,,,0.00,VWS V13.01,2013-04-09 07:05:00,
2013-04-09 02:10:00,36.1,27.3,0.00,NNE,24,0.0,0.0,70,0.00,,,0.00,VWS V13.01,2013-04-09 07:10:00,
2013-04-09 02:15:00,36.1,27.3,0.00,NNE,20,0.0,0.0,70,0.00,,,0.00,VWS V13.01,2013-04-09 07:15:00,
2013-04-09 02:20:00,36.1,27.3,0.00,ENE,61,0.0,0.0,70,0.00,,,0.00,VWS V13.01,2013-04-09 07:20:00,
2013-04-09 02:25:00,36.0,27.1,0.00,NNE,29,0.0,0.0,70,0.00,,,0.00,VWS V13.01,2013-04-09 07:25:00,
2013-04-09 02:30:00,36.0,27.1,0.00,NE,35,0.0,0.0,70,0.00,,,0.00,VWS V13.01,2013-04-09 07:30:00,
2013-04-09 02:35:00,36.0,27.1,0.00,North,2,2.7,2.7,70,0.00,,,0.00,VWS V13.01,2013-04-09 07:35:00,
2013-04-09 02:40:00,36.0,27.1,0.00,North,2,0.0,0.0,70,0.00,,,0.00,VWS V13.01,2013-04-09 07:40:00,
2013-04-09 02:45:00,35.8,27.3,0.00,North,357,5.4,5.4,71,0.00,,,0.00,VWS V13.01,2013-04-09 07:45:00,
2013-04-09 02:50:00,35.8,27.3,0.00,North,7,0.0,0.0,71,0.00,,,0.00,VWS V13.01,2013-04-09 07:50:00,
2013-04-09 02:55:00,35.8,27.3,0.00,NNE,26,2.7,3.6,71,0.00,,,0.00,VWS V13.01,2013-04-09 07:55:00,
2013-04-09 03:00:00,35.8,27.3,0.00,NW,321,3.1,3.1,71,0.00,,,0.00,VWS V13.01,2013-04-09 08:00:00,
2013-04-09 03:05:00,35.8,27.6,0.00,NNW,343,3.1,3.1,72,0.00,,,0.00,VWS V13.01,2013-04-09 08:05:00,
2013-04-09 03:10:00,35.8,27.6,0.00,NNW,345,0.0,0.0,72,0.00,,,0.00,VWS V13.01,2013-04-09 08:10:00,
2013-04-09 03:15:00,35.8,27.6,0.00,NE,48,2.7,2.7,72,0.00,,,0.00,VWS V13.01,2013-04-09 08:15:00,
2013-04-09 03:20:00,35.8,27.6,0.00,East,99,0.0,2.7,72,0.00,,,0.00,VWS V13.01,2013-04-09 08:20:00,
2013-04-09 03:25:00,35.6,27.5,0.00,NW,316,0.0,0.0,72,0.00,,,0.00,VWS V13.01,2013-04-09 08:25:00,
2013-04-09 03:30:00,35.8,27.6,0.00,North,7,0.0,0.0,72,0.00,,,0.00,VWS V13.01,2013-04-09 08:30:00,
2013-04-09 03:35:00,35.8,27.6,0.00,NE,43,0.0,0.0,72,0.00,,,0.00,VWS V13.01,2013-04-09 08:35:00,
2013-04-09 03:40:00,35.6,27.5,0.00,NNE,22,0.0,0.0,72,0.00,,,0.00,VWS V13.01,2013-04-09 08:40:00,
2013-04-09 03:45:00,35.6,27.5,0.00,ENE,57,0.0,0.0,72,0.00,,,0.00,VWS V13.01,2013-04-09 08:45:00,
2013-04-09 03:50:00,35.6,27.5,0.00,ENE,57,0.0,0.0,72,0.00,,,0.00,VWS V13.01,2013-04-09 08:50:00,
2013-04-09 03:55:00,35.6,27.5,0.00,ESE,110,2.2,2.2,72,0.00,,,0.00,VWS V13.01,2013-04-09 08:55:00,
2013-04-09 04:00:00,35.6,27.5,0.00,ESE,103,0.0,0.0,72,0.00,,,0.00,VWS V13.01,2013-04-09 09:00:00,
2013-04-09 04:05:00,35.4,27.3,0.00,NE,36,0.0,0.0,72,0.00,,,0.00,VWS V13.01,2013-04-09 09:05:00,
2013-04-09 04:10:00,35.4,27.3,0.00,North,0,0.0,0.0,72,0.00,,,0.00,VWS V13.01,2013-04-09 09:10:00,
2013-04-09 04:15:00,35.4,27.3,0.00,NW,317,0.0,0.0,72,0.00,,,0.00,VWS V13.01,2013-04-09 09:15:00,
2013-04-09 04:20:00,35.4,27.3,0.00,NW,322,0.0,0.0,72,0.00,,,0.00,VWS V13.01,2013-04-09 09:20:00,
2013-04-09 04:25:00,35.4,27.3,0.00,NW,318,0.0,0.0,72,0.00,,,0.00,VWS V13.01,2013-04-09 09:25:00,
2013-04-09 04:30:00,35.6,27.5,0.00,NW,318,0.0,0.0,72,0.00,,,0.00,VWS V13.01,2013-04-09 09:30:00,
2013-04-09 04:35:00,35.6,27.5,0.00,NW,318,0.0,0.0,72,0.00,,,0.00,VWS V13.01,2013-04-09 09:35:00,
2013-04-09 04:40:00,35.4,27.3,0.00,NW,318,0.0,0.0,72,0.00,,,0.00,VWS V13.01,2013-04-09 09:40:00,
2013-04-09 04:45:00,35.4,27.3,0.00,NNW,329,0.0,0.0,72,0.00,,,0.00,VWS V13.01,2013-04-09 09:45:00,
2013-04-09 04:50:00,35.4,27.3,0.00,NNW,343,0.0,3.1,72,0.00,,,0.00,VWS V13.01,2013-04-09 09:50:00,
2013-04-09 04:55:00,35.4,27.3,0.00,NNW,343,0.0,0.0,72,0.00,,,0.00,VWS V13.01,2013-04-09 09:55:00,
2013-04-09 05:00:00,35.4,27.3,0.00,North,0,2.2,3.6,72,0.00,,,0.00,VWS V13.01,2013-04-09 10:00:00,
2013-04-09 05:05:00,35.4,27.3,0.00,North,5,0.0,2.7,72,0.00,,,0.00,VWS V13.01,2013-04-09 10:05:00,
2013-04-09 05:10:00,35.4,27.3,0.00,NNW,339,0.0,3.1,72,0.00,,,0.00,VWS V13.01,2013-04-09 10:10:00,
2013-04-09 05:16:00,35.4,27.3,0.00,NW,317,2.7,3.6,72,0.00,,,0.00,VWS V13.01,2013-04-09 10:16:00,
2013-04-09 05:20:00,35.2,27.5,0.00,NNW,332,2.7,3.1,73,0.00,,,0.00,VWS V13.01,2013-04-09 10:20:00,
2013-04-09 05:25:00,35.2,27.5,0.00,NNE,24,0.0,0.0,73,0.00,,,0.00,VWS V13.01,2013-04-09 10:25:00,
2013-04-09 05:30:00,35.2,27.5,0.00,NNE,18,0.0,0.0,73,0.00,,,0.00,VWS V13.01,2013-04-09 10:30:00,
2013-04-09 05:35:00,35.2,27.5,0.00,North,0,4.0,4.0,73,0.00,,,0.00,VWS V13.01,2013-04-09 10:35:00,
2013-04-09 05:40:00,35.4,27.6,0.00,North,2,4.9,4.9,73,0.00,,,0.00,VWS V13.01,2013-04-09 10:40:00,
2013-04-09 05:45:00,35.2,27.8,0.00,North,353,0.0,0.0,74,0.00,,,0.00,VWS V13.01,2013-04-09 10:45:00,
2013-04-09 05:50:00,35.2,27.8,0.00,North,7,0.0,2.7,74,0.00,,,0.00,VWS V13.01,2013-04-09 10:50:00,
2013-04-09 05:55:00,35.2,27.8,0.00,NE,39,0.0,0.0,74,0.00,,,0.00,VWS V13.01,2013-04-09 10:55:00,
2013-04-09 06:00:00,35.4,28.0,0.00,North,0,0.0,3.6,74,0.00,,,0.00,VWS V13.01,2013-04-09 11:00:00,
2013-04-09 06:05:00,35.4,28.0,0.00,NE,43,0.0,0.0,74,0.00,,,0.00,VWS V13.01,2013-04-09 11:05:00,
2013-04-09 06:10:00,35.4,28.0,0.00,North,0,0.0,0.0,74,0.00,,,0.00,VWS V13.01,2013-04-09 11:10:00,
2013-04-09 06:15:00,35.4,28.0,0.00,North,3,3.1,3.1,74,0.00,,,0.00,VWS V13.01,2013-04-09 11:15:00,
2013-04-09 06:20:00,35.4,28.0,0.00,NE,51,0.0,3.6,74,0.00,,,0.00,VWS V13.01,2013-04-09 11:20:00,
2013-04-09 06:25:00,35.4,28.0,0.00,NNE,26,0.0,0.0,74,0.00,,,0.00,VWS V13.01,2013-04-09 11:25:00,
2013-04-09 06:30:00,35.4,28.0,0.00,NNE,21,0.0,2.2,74,0.00,,,0.00,VWS V13.01,2013-04-09 11:30:00,
2013-04-09 06:35:00,35.4,28.0,0.00,NE,47,0.0,0.0,74,0.00,,,0.00,VWS V13.01,2013-04-09 11:35:00,
2013-04-09 06:40:00,35.4,28.0,0.00,North,9,0.0,0.0,74,0.00,,,0.00,VWS V13.01,2013-04-09 11:40:00,
2013-04-09 06:45:00,35.4,28.0,0.00,ENE,66,0.0,2.2,74,0.00,,,0.00,VWS V13.01,2013-04-09 11:45:00,
2013-04-09 06:50:00,35.4,28.0,0.00,NE,55,0.0,0.0,74,0.00,,,0.00,VWS V13.01,2013-04-09 11:50:00,
2013-04-09 06:55:00,35.4,28.0,0.00,North,1,0.0,2.2,74,0.00,,,0.00,VWS V13.01,2013-04-09 11:55:00,
2013-04-09 07:00:00,35.4,28.0,0.00,NNE,27,2.7,4.0,74,0.00,,,0.00,VWS V13.01,2013-04-09 12:00:00,
2013-04-09 07:05:00,35.4,28.0,0.00,NNW,338,0.0,2.2,74,0.00,,,0.00,VWS V13.01,2013-04-09 12:05:00,
2013-04-09 07:10:00,35.6,27.8,0.00,NNW,342,2.2,2.7,73,0.00,,,0.00,VWS V13.01,2013-04-09 12:10:00,
2013-04-09 07:15:00,35.6,27.8,0.00,ENE,73,0.0,0.0,73,0.00,,,0.00,VWS V13.01,2013-04-09 12:15:00,
2013-04-09 07:20:00,35.6,27.8,0.00,North,11,0.0,0.0,73,0.00,,,0.00,VWS V13.01,2013-04-09 12:20:00,
2013-04-09 07:26:00,35.6,27.8,0.00,NE,35,0.0,2.7,73,0.00,,,0.00,VWS V13.01,2013-04-09 12:26:00,
2013-04-09 07:31:00,35.6,27.8,0.00,NNE,12,0.0,0.0,73,0.00,,,0.00,VWS V13.01,2013-04-09 12:31:00,
2013-04-09 07:36:00,35.6,27.8,0.00,North,349,2.2,2.2,73,0.00,,,0.00,VWS V13.01,2013-04-09 12:36:00,
2013-04-09 07:41:00,35.6,27.8,0.00,NW,320,0.0,2.7,73,0.00,,,0.00,VWS V13.01,2013-04-09 12:41:00,
2013-04-09 07:47:00,35.8,28.0,0.00,NE,55,0.0,5.8,73,0.00,,,0.00,VWS V13.01,2013-04-09 12:47:00,
2013-04-09 07:52:00,35.8,28.0,0.00,NNE,25,3.6,5.8,73,0.00,,,0.00,VWS V13.01,2013-04-09 12:52:00,
2013-04-09 07:57:00,35.8,28.0,0.00,NE,39,0.0,5.8,73,0.00,,,0.00,VWS V13.01,2013-04-09 12:57:00,
2013-04-09 08:02:00,35.8,27.6,0.00,NE,52,0.0,0.0,72,0.00,,,0.00,VWS V13.01,2013-04-09 13:02:00,
2013-04-09 08:07:00,36.0,27.8,0.00,ENE,60,0.0,0.0,72,0.00,,,0.00,VWS V13.01,2013-04-09 13:07:00,
2013-04-09 08:12:00,36.0,27.8,0.00,NE,52,0.0,0.0,72,0.00,,,0.00,VWS V13.01,2013-04-09 13:12:00,
2013-04-09 08:17:00,36.0,27.8,0.00,NNE,21,0.0,2.2,72,0.00,,,0.00,VWS V13.01,2013-04-09 13:17:00,
2013-04-09 08:22:00,36.0,27.8,0.00,WNW,289,0.0,0.0,72,0.00,,,0.00,VWS V13.01,2013-04-09 13:22:00,
2013-04-09 08:27:00,36.1,27.7,0.00,ENE,63,2.2,2.2,71,0.00,,,0.00,VWS V13.01,2013-04-09 13:27:00,
2013-04-09 08:32:00,36.1,27.7,0.00,NE,44,0.0,3.6,71,0.00,,,0.00,VWS V13.01,2013-04-09 13:32:00,
2013-04-09 08:37:00,36.1,27.3,0.00,NNE,25,0.0,2.2,70,0.00,,,0.00,VWS V13.01,2013-04-09 13:37:00,
2013-04-09 08:42:00,36.3,27.5,0.00,NE,56,0.0,0.0,70,0.00,,,0.00,VWS V13.01,2013-04-09 13:42:00,
2013-04-09 08:47:00,36.3,27.5,0.00,North,5,4.9,4.9,70,0.00,,,0.00,VWS V13.01,2013-04-09 13:47:00,
2013-04-09 08:52:00,36.3,27.1,0.00,NNW,346,3.6,8.7,69,0.00,,,0.00,VWS V13.01,2013-04-09 13:52:00,
2013-04-09 08:57:00,36.5,27.0,0.00,NNW,339,2.7,3.6,68,0.00,,,0.00,VWS V13.01,2013-04-09 13:57:00,
2013-04-09 09:02:00,36.5,26.6,0.00,ENE,61,4.5,4.5,67,0.00,,,0.00,VWS V13.01,2013-04-09 14:02:00,
2013-04-09 09:07:00,36.7,26.8,0.00,NNE,15,7.6,7.6,67,0.00,,,0.00,VWS V13.01,2013-04-09 14:07:00,
2013-04-09 09:12:00,36.7,26.4,0.00,ESE,119,0.0,4.9,66,0.00,,,0.00,VWS V13.01,2013-04-09 14:12:00,
2013-04-09 09:17:00,36.9,26.6,0.00,SE,139,3.1,4.0,66,0.00,,,0.00,VWS V13.01,2013-04-09 14:17:00,
2013-04-09 09:22:00,37.0,26.4,0.00,NNE,29,0.0,3.1,65,0.00,,,0.00,VWS V13.01,2013-04-09 14:22:00,
2013-04-09 09:27:00,37.0,25.6,0.00,North,11,4.0,4.5,63,0.00,,,0.00,VWS V13.01,2013-04-09 14:27:00,
2013-04-09 09:32:00,37.2,25.0,0.00,North,0,3.1,4.0,61,0.00,,,0.00,VWS V13.01,2013-04-09 14:32:00,
2013-04-09 09:37:00,37.4,24.8,0.00,NNE,13,3.1,6.3,60,0.00,,,0.00,VWS V13.01,2013-04-09 14:37:00,
2013-04-09 09:42:00,37.4,24.0,0.00,NNE,13,3.1,4.0,58,0.00,,,0.00,VWS V13.01,2013-04-09 14:42:00,
2013-04-09 09:47:00,37.4,23.6,0.00,ENE,57,3.6,7.6,57,0.00,,,0.00,VWS V13.01,2013-04-09 14:47:00,
2013-04-09 09:52:00,37.4,23.1,0.00,North,357,2.7,4.5,56,0.00,,,0.00,VWS V13.01,2013-04-09 14:52:00,
2013-04-09 09:57:00,37.6,23.3,0.00,North,10,4.0,7.6,56,0.00,,,0.00,VWS V13.01,2013-04-09 14:57:00,
2013-04-09 10:02:00,37.6,22.9,0.00,ENE,72,3.1,3.6,55,0.00,,,0.00,VWS V13.01,2013-04-09 15:02:00,
2013-04-09 10:07:00,37.6,22.9,0.00,NNW,328,3.6,8.3,55,0.00,,,0.00,VWS V13.01,2013-04-09 15:07:00,
2013-04-09 10:12:00,37.6,22.9,0.00,NNE,12,4.0,8.3,55,0.00,,,0.00,VWS V13.01,2013-04-09 15:12:00,
2013-04-09 10:17:00,37.6,22.9,0.00,NNW,344,3.6,6.3,55,0.00,,,0.00,VWS V13.01,2013-04-09 15:17:00,
2013-04-09 10:22:00,37.6,22.9,0.00,NNW,346,5.4,5.4,55,0.00,,,0.00,VWS V13.01,2013-04-09 15:22:00,
2013-04-09 10:27:00,37.6,22.9,0.00,ENE,63,8.3,8.3,55,0.00,,,0.00,VWS V13.01,2013-04-09 15:27:00,
2013-04-09 10:32:00,37.6,22.9,0.00,NNE,29,5.4,5.8,55,0.00,,,0.00,VWS V13.01,2013-04-09 15:32:00,
2013-04-09 10:38:00,37.6,22.5,0.00,NW,316,3.6,4.9,54,0.00,,,0.00,VWS V13.01,2013-04-09 15:38:00,
2013-04-09 10:43:00,37.6,22.5,0.00,North,11,5.4,5.4,54,0.00,,,0.00,VWS V13.01,2013-04-09 15:43:00,
2013-04-09 10:47:00,37.8,22.6,0.00,NE,48,5.8,5.8,54,0.00,,,0.00,VWS V13.01,2013-04-09 15:47:00,
2013-04-09 10:53:00,37.8,22.6,0.00,North,2,8.3,8.3,54,0.00,,,0.00,VWS V13.01,2013-04-09 15:53:00,
2013-04-09 10:58:00,37.8,22.2,0.00,NW,309,4.9,5.8,53,0.00,,,0.00,VWS V13.01,2013-04-09 15:58:00,
2013-04-09 11:03:00,37.8,22.2,0.00,NE,51,5.8,7.6,53,0.00,,,0.00,VWS V13.01,2013-04-09 16:03:00,
2013-04-09 11:08:00,37.8,22.2,0.00,North,357,6.3,6.3,53,0.00,,,0.00,VWS V13.01,2013-04-09 16:08:00,
2013-04-09 11:13:00,37.8,22.2,0.00,NNW,330,8.1,8.1,53,0.00,,,0.00,VWS V13.01,2013-04-09 16:13:00,
2013-04-09 11:18:00,37.8,22.2,0.00,NNW,346,4.9,4.9,53,0.00,,,0.00,VWS V13.01,2013-04-09 16:18:00,
2013-04-09 11:23:00,37.6,22.0,0.00,NNE,32,3.6,3.6,53,0.00,,,0.00,VWS V13.01,2013-04-09 16:23:00,
2013-04-09 11:28:00,37.6,22.0,0.00,NNW,337,8.3,8.3,53,0.00,,,0.00,VWS V13.01,2013-04-09 16:28:00,
2013-04-09 11:33:00,37.6,22.0,0.00,North,357,2.7,2.7,53,0.00,,,0.00,VWS V13.01,2013-04-09 16:33:00,
2013-04-09 11:38:00,37.6,22.5,0.00,NNE,13,5.4,5.4,54,0.00,,,0.00,VWS V13.01,2013-04-09 16:38:00,
2013-04-09 11:43:00,37.4,22.3,0.00,ENE,74,8.1,8.1,54,0.00,,,0.00,VWS V13.01,2013-04-09 16:43:00,
2013-04-09 11:48:00,37.4,22.3,0.00,NNW,335,4.9,4.9,54,0.00,,,0.00,VWS V13.01,2013-04-09 16:48:00,
2013-04-09 11:53:00,37.2,22.6,0.00,NNE,27,2.2,2.2,55,0.00,,,0.00,VWS V13.01,2013-04-09 16:53:00,
2013-04-09 11:58:00,37.2,23.0,0.00,ENE,59,3.1,3.1,56,0.00,,,0.00,VWS V13.01,2013-04-09 16:58:00,
2013-04-09 12:03:00,37.0,23.2,0.00,NE,47,3.6,3.6,57,0.00,,,0.00,VWS V13.01,2013-04-09 17:03:00,
2013-04-09 12:08:00,37.0,23.6,0.00,NE,50,3.1,6.3,58,0.00,,,0.00,VWS V13.01,2013-04-09 17:08:00,
2013-04-09 12:13:00,37.0,24.1,0.00,NNW,341,5.4,5.4,59,0.00,,,0.00,VWS V13.01,2013-04-09 17:13:00,
2013-04-09 12:18:00,37.0,24.5,0.00,North,9,4.9,4.9,60,0.00,,,0.00,VWS V13.01,2013-04-09 17:18:00,
2013-04-09 12:23:00,37.0,24.5,0.00,North,8,2.7,2.7,60,0.00,,,0.00,VWS V13.01,2013-04-09 17:23:00,
2013-04-09 12:28:00,36.9,24.7,0.00,ENE,66,3.6,3.6,61,0.00,,,0.00,VWS V13.01,2013-04-09 17:28:00,
2013-04-09 12:33:00,36.9,25.1,0.00,NE,56,4.9,8.3,62,0.00,,,0.00,VWS V13.01,2013-04-09 17:33:00,
2013-04-09 12:38:00,36.9,25.5,0.00,NNE,33,4.9,5.4,63,0.04,,,0.04,VWS V13.01,2013-04-09 17:38:00,
2013-04-09 12:43:00,36.9,25.8,0.00,NW,304,3.6,4.0,64,0.04,,,0.04,VWS V13.01,2013-04-09 17:43:00,
2013-04-09 12:48:00,36.9,25.8,0.00,NNE,16,2.2,2.2,64,0.04,,,0.04,VWS V13.01,2013-04-09 17:48:00,
2013-04-09 12:53:00,36.9,26.2,0.00,WNW,297,3.1,3.1,65,0.04,,,0.04,VWS V13.01,2013-04-09 17:53:00,
2013-04-09 12:58:00,36.9,26.2,0.00,North,0,5.4,5.8,65,0.04,,,0.04,VWS V13.01,2013-04-09 17:58:00,
2013-04-09 13:03:00,36.7,25.7,0.00,NNE,31,4.9,4.9,64,0.04,,,0.04,VWS V13.01,2013-04-09 18:03:00,
2013-04-09 13:08:00,36.9,25.8,0.00,NNW,331,5.4,5.4,64,0.04,,,0.04,VWS V13.01,2013-04-09 18:08:00,
2013-04-09 13:13:00,36.9,26.2,0.00,North,7,5.4,6.3,65,0.04,,,0.04,VWS V13.01,2013-04-09 18:13:00,
2013-04-09 13:18:00,37.2,26.5,0.00,NE,35,5.4,5.4,65,0.04,,,0.04,VWS V13.01,2013-04-09 18:18:00,
2013-04-09 13:23:00,37.4,26.7,0.00,ENE,57,5.4,6.3,65,0.04,,,0.04,VWS V13.01,2013-04-09 18:23:00,
2013-04-09 13:28:00,37.4,26.0,0.00,NE,48,3.1,3.1,63,0.04,,,0.04,VWS V13.01,2013-04-09 18:28:00,
2013-04-09 13:33:00,37.6,26.1,0.00,North,350,3.1,4.9,63,0.04,,,0.04,VWS V13.01,2013-04-09 18:33:00,
2013-04-09 13:38:00,37.6,26.1,0.00,NNE,22,4.0,4.9,63,0.00,,,0.04,VWS V13.01,2013-04-09 18:38:00,
2013-04-09 13:43:00,37.4,24.8,0.00,North,353,8.3,8.3,60,0.00,,,0.04,VWS V13.01,2013-04-09 18:43:00,
2013-04-09 13:48:00,37.2,23.4,0.00,NNW,340,3.6,8.7,57,0.00,,,0.04,VWS V13.01,2013-04-09 18:48:00,
2013-04-09 13:53:00,37.4,23.6,0.00,NNE,20,3.6,3.6,57,0.00,,,0.04,VWS V13.01,2013-04-09 18:53:00,
2013-04-09 13:58:00,37.8,23.9,0.00,NW,324,5.4,5.8,57,0.00,,,0.04,VWS V13.01,2013-04-09 18:58:00,
2013-04-09 14:03:00,37.9,23.2,0.00,NNE,23,3.6,11.0,55,0.00,,,0.04,VWS V13.01,2013-04-09 19:03:00,
2013-04-09 14:08:00,38.1,23.0,0.00,North,353,0.0,2.7,54,0.00,,,0.04,VWS V13.01,2013-04-09 19:08:00,
2013-04-09 14:13:00,38.3,20.8,0.00,NE,50,2.7,4.0,49,0.00,,,0.04,VWS V13.01,2013-04-09 19:13:00,
2013-04-09 14:18:00,38.5,21.0,0.00,NNW,336,8.1,8.1,49,0.00,,,0.04,VWS V13.01,2013-04-09 19:18:00,
2013-04-09 14:23:00,38.5,19.5,0.00,East,81,4.5,5.4,46,0.00,,,0.04,VWS V13.01,2013-04-09 19:23:00,
2013-04-09 14:28:00,38.7,19.2,0.00,North,7,6.3,8.1,45,0.00,,,0.04,VWS V13.01,2013-04-09 19:28:00,
2013-04-09 14:33:00,39.0,19.0,0.00,ENE,59,4.0,4.0,44,0.00,,,0.04,VWS V13.01,2013-04-09 19:33:00,
2013-04-09 14:38:00,39.4,17.7,0.00,NNE,27,3.6,8.3,41,0.00,,,0.04,VWS V13.01,2013-04-09 19:38:00,
2013-04-09 14:43:00,39.6,17.8,0.00,ENE,62,4.5,4.5,41,0.00,,,0.04,VWS V13.01,2013-04-09 19:43:00,
2013-04-09 14:48:00,39.9,17.6,0.00,NW,313,4.0,6.3,40,0.00,,,0.04,VWS V13.01,2013-04-09 19:48:00,
2013-04-09 14:53:00,39.9,17.6,0.00,ENE,70,6.3,6.7,40,0.00,,,0.04,VWS V13.01,2013-04-09 19:53:00,
2013-04-09 14:58:00,40.1,17.1,0.00,North,350,3.6,5.8,39,0.00,,,0.04,VWS V13.01,2013-04-09 19:58:00,
2013-04-09 15:03:00,40.1,17.1,0.00,North,357,2.7,8.3,39,0.00,,,0.04,VWS V13.01,2013-04-09 20:03:00,
2013-04-09 15:08:00,40.3,17.3,0.00,ENE,68,4.0,5.4,39,0.00,,,0.04,VWS V13.01,2013-04-09 20:08:00,
2013-04-09 15:13:00,40.3,17.3,0.00,North,7,6.3,6.3,39,0.00,,,0.04,VWS V13.01,2013-04-09 20:13:00,
2013-04-09 15:18:00,40.5,17.5,0.00,NE,48,2.7,5.4,39,0.00,,,0.04,VWS V13.01,2013-04-09 20:18:00,
2013-04-09 15:23:00,40.6,17.6,0.00,NW,324,4.0,8.3,39,0.00,,,0.04,VWS V13.01,2013-04-09 20:23:00,
2013-04-09 15:28:00,40.6,17.6,0.00,NNE,30,2.7,9.2,39,0.00,,,0.04,VWS V13.01,2013-04-09 20:28:00,
2013-04-09 15:33:00,40.8,17.8,0.00,ENE,72,5.8,6.3,39,0.00,,,0.04,VWS V13.01,2013-04-09 20:33:00,
2013-04-09 15:38:00,40.8,17.8,0.00,ENE,58,8.3,11.0,39,0.00,,,0.04,VWS V13.01,2013-04-09 20:38:00,
2013-04-09 15:43:00,40.6,17.6,0.00,NE,43,4.0,5.8,39,0.00,,,0.04,VWS V13.01,2013-04-09 20:43:00,
2013-04-09 15:49:00,41.0,17.4,0.00,ENE,63,8.1,8.7,38,0.00,,,0.04,VWS V13.01,2013-04-09 20:49:00,
2013-04-09 15:54:00,41.0,17.4,0.00,NNE,12,5.8,8.7,38,0.00,,,0.04,VWS V13.01,2013-04-09 20:54:00,
2013-04-09 15:59:00,41.2,17.5,0.00,East,83,8.3,8.3,38,0.00,,,0.04,VWS V13.01,2013-04-09 20:59:00,
2013-04-09 16:04:00,41.0,17.4,0.00,East,98,3.6,7.6,38,0.00,,,0.04,VWS V13.01,2013-04-09 21:04:00,
2013-04-09 16:09:00,41.0,17.4,0.00,NNE,16,3.6,6.7,38,0.00,,,0.04,VWS V13.01,2013-04-09 21:09:00,
2013-04-09 16:14:00,41.0,17.4,0.00,NE,49,4.0,4.9,38,0.00,,,0.04,VWS V13.01,2013-04-09 21:14:00,
2013-04-09 16:19:00,41.2,17.5,0.00,NE,52,5.8,5.8,38,0.00,,,0.04,VWS V13.01,2013-04-09 21:19:00,
2013-04-09 16:24:00,41.2,17.5,0.00,North,353,10.5,10.5,38,0.00,,,0.04,VWS V13.01,2013-04-09 21:24:00,
2013-04-09 16:29:00,41.4,17.7,0.00,North,11,4.0,4.5,38,0.00,,,0.04,VWS V13.01,2013-04-09 21:29:00,
2013-04-09 16:35:00,41.5,17.8,0.00,NNE,33,2.7,4.9,38,0.00,,,0.04,VWS V13.01,2013-04-09 21:35:00,
2013-04-09 16:39:00,41.5,17.8,0.00,ENE,76,5.4,6.3,38,0.00,,,0.04,VWS V13.01,2013-04-09 21:39:00,
2013-04-09 16:44:00,41.4,17.7,0.00,SE,124,5.8,5.8,38,0.00,,,0.04,VWS V13.01,2013-04-09 21:44:00,
2013-04-09 16:49:00,41.4,17.7,0.00,NE,45,0.0,3.6,38,0.00,,,0.04,VWS V13.01,2013-04-09 21:49:00,
2013-04-09 16:54:00,41.4,17.7,0.00,North,9,6.7,6.7,38,0.00,,,0.04,VWS V13.01,2013-04-09 21:54:00,
2013-04-09 17:00:00,41.4,17.7,0.00,NE,36,5.8,7.6,38,0.00,,,0.04,VWS V13.01,2013-04-09 22:00:00,
2013-04-09 17:05:00,41.4,17.7,0.00,ENE,78,2.2,2.2,38,0.00,,,0.04,VWS V13.01,2013-04-09 22:05:00,
2013-04-09 17:10:00,41.4,17.7,0.00,ENE,71,3.6,6.3,38,0.00,,,0.04,VWS V13.01,2013-04-09 22:10:00,
2013-04-09 17:15:00,41.0,17.4,0.00,ENE,70,5.8,6.3,38,0.00,,,0.04,VWS V13.01,2013-04-09 22:15:00,
2013-04-09 17:20:00,40.8,17.8,0.00,NNW,345,2.7,3.1,39,0.00,,,0.04,VWS V13.01,2013-04-09 22:20:00,
2013-04-09 17:25:00,40.6,17.6,0.00,NNW,335,3.6,4.0,39,0.00,,,0.04,VWS V13.01,2013-04-09 22:25:00,
2013-04-09 17:30:00,40.5,17.5,0.00,East,101,3.1,5.8,39,0.00,,,0.04,VWS V13.01,2013-04-09 22:30:00,
2013-04-09 17:35:00,40.3,17.3,0.00,NE,55,3.6,5.4,39,0.00,,,0.04,VWS V13.01,2013-04-09 22:35:00,
2013-04-09 17:40:00,40.3,17.3,0.00,NE,39,3.1,4.9,39,0.00,,,0.04,VWS V13.01,2013-04-09 22:40:00,
2013-04-09 17:45:00,40.3,17.3,0.00,NW,320,4.0,4.9,39,0.00,,,0.04,VWS V13.01,2013-04-09 22:45:00,
2013-04-09 17:50:00,40.1,16.5,0.00,NE,36,8.1,8.1,38,0.00,,,0.04,VWS V13.01,2013-04-09 22:50:00,
2013-04-09 17:55:00,39.9,16.4,0.00,ENE,61,5.8,5.8,38,0.00,,,0.04,VWS V13.01,2013-04-09 22:55:00,
2013-04-09 18:00:00,40.1,15.9,0.00,NNE,29,0.0,3.1,37,0.00,,,0.04,VWS V13.01,2013-04-09 23:00:00,
2013-04-09 18:05:00,40.1,16.5,0.00,ENE,58,2.7,5.8,38,0.00,,,0.04,VWS V13.01,2013-04-09 23:05:00,
2013-04-09 18:10:00,39.9,15.8,0.00,NNW,340,4.9,5.8,37,0.00,,,0.04,VWS V13.01,2013-04-09 23:10:00,
2013-04-09 18:15:00,39.9,15.1,0.00,NNW,335,3.6,5.4,36,0.00,,,0.04,VWS V13.01,2013-04-09 23:15:00,
2013-04-09 18:20:00,39.9,15.1,0.00,NNW,346,2.7,5.8,36,0.00,,,0.04,VWS V13.01,2013-04-09 23:20:00,
2013-04-09 18:25:00,39.7,15.0,0.00,NNE,28,3.1,3.1,36,0.00,,,0.04,VWS V13.01,2013-04-09 23:25:00,
2013-04-09 18:30:00,39.7,15.6,0.00,NNE,23,2.2,3.1,37,0.00,,,0.04,VWS V13.01,2013-04-09 23:30:00,
2013-04-09 18:35:00,39.7,15.0,0.00,North,11,2.7,4.0,36,0.00,,,0.04,VWS V13.01,2013-04-09 23:35:00,
2013-04-09 18:40:00,39.6,14.8,0.00,NE,54,3.1,5.4,36,0.00,,,0.04,VWS V13.01,2013-04-09 23:40:00,
2013-04-09 18:45:00,39.4,14.0,0.00,East,93,6.3,6.3,35,0.00,,,0.04,VWS V13.01,2013-04-09 23:45:00,
2013-04-09 18:50:00,39.2,13.9,0.00,NE,46,8.7,8.7,35,0.00,,,0.04,VWS V13.01,2013-04-09 23:50:00,
2013-04-09 18:55:00,38.8,12.9,0.00,ESE,111,3.6,6.3,34,0.00,,,0.04,VWS V13.01,2013-04-09 23:55:00,
2013-04-09 19:00:00,38.7,12.7,0.00,NNE,27,4.9,5.8,34,0.00,,,0.04,VWS V13.01,2013-04-10 00:00:00,
2013-04-09 19:05:00,38.7,12.7,0.00,NE,54,4.9,4.9,34,0.00,,,0.04,VWS V13.01,2013-04-10 00:05:00,
2013-04-09 19:10:00,38.5,12.6,0.00,North,357,3.6,4.0,34,0.00,,,0.04,VWS V13.01,2013-04-10 00:10:00,
2013-04-09 19:15:00,38.5,11.9,0.00,North,4,6.3,6.3,33,0.00,,,0.04,VWS V13.01,2013-04-10 00:15:00,
2013-04-09 19:20:00,38.3,11.7,0.00,NE,53,2.2,2.7,33,0.00,,,0.04,VWS V13.01,2013-04-10 00:20:00,
2013-04-09 19:25:00,38.3,12.4,0.00,NNW,348,4.0,5.4,34,0.00,,,0.04,VWS V13.01,2013-04-10 00:25:00,
2013-04-09 19:30:00,38.1,12.2,0.00,ENE,70,3.6,4.0,34,0.00,,,0.04,VWS V13.01,2013-04-10 00:30:00,
2013-04-09 19:35:00,38.1,12.2,0.00,ESE,103,2.7,4.9,34,0.00,,,0.04,VWS V13.01,2013-04-10 00:35:00,
2013-04-09 19:40:00,38.1,12.2,0.00,NE,55,2.2,3.6,34,0.00,,,0.04,VWS V13.01,2013-04-10 00:40:00,
2013-04-09 19:45:00,37.9,12.1,0.00,ENE,57,0.0,3.6,34,0.00,,,0.04,VWS V13.01,2013-04-10 00:45:00,
2013-04-09 19:50:00,37.9,12.1,0.00,East,100,4.0,5.4,34,0.00,,,0.04,VWS V13.01,2013-04-10 00:50:00,
2013-04-09 19:55:00,37.9,11.4,0.00,NE,48,2.7,3.6,33,0.00,,,0.04,VWS V13.01,2013-04-10 00:55:00,
2013-04-09 20:00:00,37.9,10.7,0.00,NNW,327,3.6,5.8,32,0.00,,,0.04,VWS V13.01,2013-04-10 01:00:00,
2013-04-09 20:05:00,37.9,10.7,0.00,NNE,28,5.4,5.8,32,0.00,,,0.04,VWS V13.01,2013-04-10 01:05:00,
2013-04-09 20:10:00,37.9,10.0,0.00,NNE,12,4.0,11.4,31,0.00,,,0.04,VWS V13.01,2013-04-10 01:10:00,
2013-04-09 20:15:00,37.9,10.0,0.00,NE,46,5.8,5.8,31,0.00,,,0.04,VWS V13.01,2013-04-10 01:15:00,
2013-04-09 20:20:00,37.9,10.0,0.00,NE,35,4.9,8.7,31,0.00,,,0.04,VWS V13.01,2013-04-10 01:20:00,
2013-04-09 20:25:00,37.8,9.9,0.00,NNW,327,3.6,3.6,31,0.00,,,0.04,VWS V13.01,2013-04-10 01:25:00,
2013-04-09 20:30:00,37.6,9.7,0.00,North,357,3.1,3.1,31,0.00,,,0.04,VWS V13.01,2013-04-10 01:30:00,
2013-04-09 20:35:00,37.6,9.0,0.00,NW,321,4.0,6.3,30,0.00,,,0.04,VWS V13.01,2013-04-10 01:35:00,
2013-04-09 20:40:00,37.4,8.8,0.00,NE,51,2.2,4.9,30,0.00,,,0.04,VWS V13.01,2013-04-10 01:40:00,
2013-04-09 20:45:00,37.4,8.8,0.00,ENE,65,2.7,6.3,30,0.00,,,0.04,VWS V13.01,2013-04-10 01:45:00,
2013-04-09 20:50:00,37.2,9.4,0.00,NNE,23,5.8,5.8,31,0.00,,,0.04,VWS V13.01,2013-04-10 01:50:00,
2013-04-09 20:55:00,37.0,9.2,0.00,NE,47,2.7,3.1,31,0.00,,,0.04,VWS V13.01,2013-04-10 01:55:00,
2013-04-09 21:00:00,36.9,9.1,0.00,NW,325,2.2,2.7,31,0.00,,,0.04,VWS V13.01,2013-04-10 02:00:00,
2013-04-09 21:05:00,36.9,9.1,0.00,NE,52,2.7,3.1,31,0.00,,,0.04,VWS V13.01,2013-04-10 02:05:00,
2013-04-09 21:10:00,36.7,8.9,0.00,NW,318,2.7,2.7,31,0.00,,,0.04,VWS V13.01,2013-04-10 02:10:00,
2013-04-09 21:15:00,36.5,8.8,0.00,NE,46,3.6,4.0,31,0.00,,,0.04,VWS V13.01,2013-04-10 02:15:00,
2013-04-09 21:20:00,36.5,8.0,0.00,NNE,16,2.2,4.0,30,0.00,,,0.04,VWS V13.01,2013-04-10 02:20:00,
2013-04-09 21:25:00,36.3,7.9,0.00,ENE,60,0.0,5.8,30,0.00,,,0.04,VWS V13.01,2013-04-10 02:25:00,
2013-04-09 21:30:00,36.1,7.7,0.00,NNE,30,5.4,5.4,30,0.00,,,0.04,VWS V13.01,2013-04-10 02:30:00,
2013-04-09 21:35:00,36.1,7.7,0.00,NE,56,3.1,5.4,30,0.00,,,0.04,VWS V13.01,2013-04-10 02:35:00,
2013-04-09 21:40:00,36.0,7.6,0.00,WNW,302,2.2,3.6,30,0.00,,,0.04,VWS V13.01,2013-04-10 02:40:00,
2013-04-09 21:45:00,35.8,7.4,0.00,North,6,4.9,6.3,30,0.00,,,0.04,VWS V13.01,2013-04-10 02:45:00,
2013-04-09 21:50:00,35.8,7.4,0.00,NNW,344,2.7,4.0,30,0.00,,,0.04,VWS V13.01,2013-04-10 02:50:00,
2013-04-09 21:55:00,35.8,7.4,0.00,East,80,4.0,7.2,30,0.00,,,0.04,VWS V13.01,2013-04-10 02:55:00,
2013-04-09 22:00:00,35.8,7.4,0.00,NE,46,5.8,6.7,30,0.00,,,0.04,VWS V13.01,2013-04-10 03:00:00,
2013-04-09 22:05:00,35.6,7.2,0.00,North,357,4.9,4.9,30,0.00,,,0.04,VWS V13.01,2013-04-10 03:05:00,
2013-04-09 22:10:00,35.6,7.2,0.00,NE,56,3.1,3.1,30,0.00,,,0.04,VWS V13.01,2013-04-10 03:10:00,
2013-04-09 22:15:00,35.6,7.2,0.00,North,9,3.1,5.8,30,0.00,,,0.04,VWS V13.01,2013-04-10 03:15:00,
2013-04-09 22:20:00,35.6,7.2,0.00,NE,51,4.9,4.9,30,0.00,,,0.04,VWS V13.01,2013-04-10 03:20:00,
2013-04-09 22:25:00,35.4,7.8,0.00,NNE,14,4.0,5.8,31,0.00,,,0.04,VWS V13.01,2013-04-10 03:25:00,
2013-04-09 22:30:00,35.4,7.8,0.00,East,80,4.0,4.9,31,0.00,,,0.04,VWS V13.01,2013-04-10 03:30:00,
2013-04-09 22:35:00,35.4,7.8,0.00,ENE,57,3.6,8.1,31,0.00,,,0.04,VWS V13.01,2013-04-10 03:35:00,
2013-04-09 22:40:00,35.2,6.9,0.00,NNW,338,6.7,10.5,30,0.00,,,0.04,VWS V13.01,2013-04-10 03:40:00,
2013-04-09 22:45:00,35.2,6.9,0.00,ENE,73,7.6,8.1,30,0.00,,,0.04,VWS V13.01,2013-04-10 03:45:00,
2013-04-09 22:50:00,35.1,6.8,0.00,ESE,111,6.3,6.3,30,0.00,,,0.04,VWS V13.01,2013-04-10 03:50:00,
2013-04-09 22:55:00,35.1,6.8,0.00,ENE,76,7.6,7.6,30,0.00,,,0.04,VWS V13.01,2013-04-10 03:55:00,
2013-04-09 23:00:00,34.9,6.6,0.00,East,82,5.8,5.8,30,0.00,,,0.04,VWS V13.01,2013-04-10 04:00:00,
2013-04-09 23:05:00,34.7,6.4,0.00,NE,46,7.6,7.6,30,0.00,,,0.04,VWS V13.01,2013-04-10 04:05:00,
2013-04-09 23:10:00,34.7,6.4,0.00,ESE,106,6.3,6.3,30,0.00,,,0.04,VWS V13.01,2013-04-10 04:10:00,
2013-04-09 23:15:00,34.5,6.3,0.00,ENE,76,5.4,8.7,30,0.00,,,0.04,VWS V13.01,2013-04-10 04:15:00,
2013-04-09 23:20:00,34.5,6.3,0.00,ENE,66,7.6,7.6,30,0.00,,,0.04,VWS V13.01,2013-04-10 04:20:00,
2013-04-09 23:25:00,34.5,7.0,0.00,NE,44,2.2,4.0,31,0.00,,,0.04,VWS V13.01,2013-04-10 04:25:00,
2013-04-09 23:30:00,34.3,6.9,0.00,NE,51,2.2,3.1,31,0.00,,,0.04,VWS V13.01,2013-04-10 04:30:00,
2013-04-09 23:35:00,34.3,6.9,0.00,East,91,10.1,10.1,31,0.00,,,0.04,VWS V13.01,2013-04-10 04:35:00,
2013-04-09 23:40:00,34.3,6.9,0.00,ESE,110,3.1,4.0,31,0.00,,,0.04,VWS V13.01,2013-04-10 04:40:00,
2013-04-09 23:45:00,34.2,6.7,0.00,NE,46,3.6,3.6,31,0.00,,,0.04,VWS V13.01,2013-04-10 04:45:00,
2013-04-09 23:50:00,34.2,6.7,0.00,NNE,26,4.9,5.4,31,0.00,,,0.04,VWS V13.01,2013-04-10 04:50:00,
2013-04-09 23:55:00,34.0,6.5,0.00,ENE,61,2.7,3.6,31,0.00,,,0.04,VWS V13.01,2013-04-10 04:55:00,